Location: Brantley
(31.5822°N, 86.2569°W)
Time: 19:43:35
(UTC+00:00)

Courier 1B Rocket - Pass Details

Date: 17 February 2026
Orbit: 920 x 1201 km, 28.2° (Epoch: 10 March)

Event Time Altitude Azimuth Distance (km) Brightness Sun altitude
Rises 06:45:36 0° 271° (W) 3,760 - -67.6°
Reaches altitude 10° 06:48:38 10° 260° (W) 2,853 - -67.3°
Maximum altitude 06:54:24 28° 204° (SSW) 1,927 - -66.6°
Drops below altitude 10° 07:00:30 10° 149° (SSE) 3,018 - -65.8°
Sets 07:03:49 0° 138° (SE) 4,015 - -65.3°
